Location: Unspecified
(0.0000°N, 0.0000°E)
Time: 13:45:54
(UTC+00:00)

Envisat - Pass Details

Date: 30 November 2020
Orbit: 764 x 766 km, 98.1° (Epoch: 28 November)

Event Time Altitude Azimuth Distance (km) Brightness Sun altitude
Rises 04:29:38 0° 44° (NE) 3,216 6.5 -18.3°
Reaches altitude 10° 04:32:49 10° 66° (ENE) 2,294 6.1 -17.6°
Maximum altitude 04:35:49 16° 103° (ESE) 1,919 6.2 -16.9°
Drops below altitude 10° 04:38:49 10° 139° (SE) 2,301 6.5 -16.2°
Sets 04:42:00 0° 160° (SSE) 3,230 6.9 -15.5°
